IRIDIUM 2 [-] (25527 NORAD) Tracking and Keplerian Element Data

This shows tracking and keplerian element data for the satellite.

Feedback or suggestion? Click here.




ElementValue
Catalog25527
NameIRIDIUM 2 [-]
Epoch Orbit10110
Epoch Day348.90210762
Epoch Year2018
RAAN69.8152
Inclination85.531
Eccentricity0.0006986
Argument of Perigee233.6093
Mean Anonmoly126.4503
Mean Motion15.17746065
Decay Rate9.58E-06
L11 25527U 98066A 18348.90210762 .00000958 00000-0 45594-4 0 9994
L22 25527 85.5310 69.8152 0006986 233.6093 126.4503 15.17746065101107

Live tracking and technical data element details for IRIDIUM 2 [-] (NORAD 25527). IRIDIUM 2 [-] can be tracked NOW for your location showing map with azimuth and elevation plus other details from your city location.

Track the satellite on the map from your city or location and see movement details for azimuth, elevation, latitude, longitude, range, height, and movement on the map or in text.







IsCatalogInMostPopularTable: catalog: 25527, numindb: 52
Update: records affected: 1



GetName: 25527 IRIDIUM 2 [-]

Hit Count: updated at: Sat, 15 Dec 2018 19:30:53 GMT